Portada
METAR-TAF:

METAR-TAF

Aeroports :

Nioro, Mali

latitud: 15-14N, longitud: 009-21W, altitud: 235 m

Observació

L'informe es va fer fa 1 hora i 20 minuts, a les 06:00 UTC
Vent 6 kt del Est/Nord-Est
Temperatura 27°C
Humitat 11%
Pressió 1015 hPa
Visibilitat: 8000 m

METAR: GANR 250600Z 06006KT 8000 NSC 27/M06 Q1015

Hora: 07:20 (07:20 UTC)


TAF: manca

Observacions i pronòstics meteorològics de més de 4000 aeroports (METAR i TAF).

Les estacions disponibles són els punts grocs i vermells al mapa.

Posi el ratolí al punt desitjat per veure el nom de l'estació.

Feu clic per veure les observacions i els pronòstics meteorològics.

Per canviar el mapa: feu clic els botons verds amb una creu de color negre per apropar; al botó verd amb un guió per allunyar la imatge; o en les fletxes verdes per a mapes adjacents.


METAR-TAF: